Zurück zum Katalog

AVUM R/B

AktivMEO
NORAD 53109·ROCKET BODY·🇫🇷 France

Gestartet Jul 13, 2022 von Guiana Space Centre

Loading…

Nächste Überflüge (nächste 24 Stunden)

TLE

AktuellSource: Space-Track

Epoche: Sep 14, 2026, 01:15 UTC

1 53109U 22080E   26257.05265458 -.00000003  00000-0  00000-0 0  9991
2 53109  70.1212 267.3355 0009219 270.3545  89.6058  6.42583783 97773

Verfolge AVUM R/B in Echtzeit mit AllMySat

Download on the App Store